Location: �terpigny
(49.8910°N, 2.9249°E)
Time: 14:06:58
(UTC+00:00)

SL-08 RB Rocket - Pass Details

Date: 24 October 2021
Orbit: 646 x 683 km, 97.8° (Epoch: 27 November)

Event Time Altitude Azimuth Distance (km) Brightness Sun altitude
Rises 18:12:40 0° 161° (SSE) 2,988 6.9 -15.6°
Reaches altitude 10° 18:14:52 10° 160° (SSE) 2,086 6.1 -16.0°
Maximum altitude 18:19:25 80° 75° (ENE) 689 3.6 -16.7°
Drops below altitude 10° 18:24:04 10° 348° (NNW) 2,124 6.5 -17.5°
Sets 18:26:20 0° 348° (NNW) 3,048 7.3 -17.8°
